Weather reports worldwide

Advertisment
Bradford, United Kingdom (99171): temperature & dewpoint: 14.10.2020 15:00:00 - 20.10.2020 15:00:00 (BST)Bradford, United Kingdom (99171): temperature -20cm & temperature -100cm: 14.10.2020 15:00:00 - 20.10.2020 15:00:00 (BST)Bradford, United Kingdom (99171): precipitation: 14.10.2020 15:00:00 - 20.10.2020 15:00:00 (BST)
Date & Time tt [°C] td [°C] tt -20cm [°C] tt -100cm [°C] rr [mm]
20.10.2020 15:00:00 16,6 8,6 - - 0,0
20.10.2020 14:00:00 17,7 9,2 - - 0,0
20.10.2020 13:00:00 16,6 9,8 - - 0,0
20.10.2020 12:00:00 16,3 11,2 - - 0,0
20.10.2020 11:00:00 13,8 11,7 - - 0,0
20.10.2020 10:00:00 12,4 11,5 11,9 12,7 0,0
20.10.2020 09:00:00 10,3 9,7 - - 0,0
20.10.2020 08:00:00 10,0 9,3 - - 0,0
20.10.2020 07:00:00 9,5 8,8 - - 0,0
20.10.2020 06:00:00 8,9 8,0 - - 0,2
20.10.2020 05:00:00 8,8 7,8 - - 1,0
20.10.2020 04:00:00 9,0 7,3 - - 1,2
20.10.2020 03:00:00 9,9 6,3 - - 0,0
20.10.2020 02:00:00 9,6 6,0 - - 0,0
20.10.2020 01:00:00 9,9 5,9 - - 0,0
20.10.2020 00:00:00 10,3 5,9 - - 0,0
19.10.2020 23:00:00 10,4 6,1 - - 0,0
19.10.2020 22:00:00 10,7 6,3 - - 0,0
19.10.2020 21:00:00 11,0 6,3 - - 0,0
19.10.2020 20:00:00 11,5 6,4 - - 0,0
19.10.2020 19:00:00 11,7 6,8 - - 0,0
19.10.2020 18:00:00 11,5 7,7 - - 0,0
19.10.2020 17:00:00 11,7 7,4 - - 0,0
19.10.2020 16:00:00 11,7 7,3 - - 0,0
19.10.2020 15:00:00 11,8 7,6 - - 0,0
19.10.2020 14:00:00 12,0 7,1 - - 0,0
19.10.2020 13:00:00 12,0 6,8 - - 0,0
19.10.2020 12:00:00 11,8 6,5 - - 0,0
19.10.2020 11:00:00 11,3 6,8 - - 0,0
19.10.2020 10:00:00 10,8 6,9 11,9 12,7 0,0
19.10.2020 09:00:00 9,4 6,6 - - 0,0
19.10.2020 08:00:00 9,9 6,6 - - 0,0
19.10.2020 07:00:00 7,6 6,6 - - 0,0
19.10.2020 06:00:00 7,7 6,3 - - 0,0
19.10.2020 05:00:00 8,9 6,3 - - 0,0
19.10.2020 04:00:00 9,5 6,2 - - 0,0
19.10.2020 03:00:00 9,5 6,4 - - 0,0
19.10.2020 02:00:00 9,4 6,5 - - 0,0
19.10.2020 01:00:00 8,2 6,9 - - 0,0
19.10.2020 00:00:00 7,8 6,5 - - 0,0
18.10.2020 23:00:00 8,8 6,7 - - 0,0
18.10.2020 22:00:00 9,0 6,9 - - 0,0
18.10.2020 21:00:00 8,7 7,2 - - 0,0
18.10.2020 20:00:00 8,8 7,0 - - 0,0
18.10.2020 19:00:00 8,3 7,1 - - 0,0
18.10.2020 18:00:00 8,8 6,9 - - 0,0
18.10.2020 17:00:00 9,3 6,9 - - 0,0
18.10.2020 16:00:00 9,0 6,0 - - 0,0
18.10.2020 15:00:00 8,9 5,2 - - 0,0
18.10.2020 14:00:00 8,7 5,0 - - 0,0
18.10.2020 13:00:00 8,4 4,7 - - 0,0
18.10.2020 12:00:00 8,3 5,2 - - 0,0
18.10.2020 11:00:00 8,2 6,3 - - 0,0
18.10.2020 10:00:00 7,7 6,7 12,0 12,7 0,0
18.10.2020 09:00:00 7,1 6,4 - - 0,0
18.10.2020 08:00:00 6,7 5,8 - - 0,0
18.10.2020 07:00:00 6,9 6,0 - - 0,0
18.10.2020 06:00:00 7,2 5,9 - - 0,0
18.10.2020 05:00:00 7,9 7,1 - - 0,2
18.10.2020 04:00:00 8,1 7,3 - - 0,2
18.10.2020 03:00:00 8,3 7,4 - - 0,0
18.10.2020 02:00:00 8,4 7,5 - - 0,2
18.10.2020 01:00:00 9,1 7,8 - - 0,0
18.10.2020 00:00:00 9,0 7,6 - - 0,0
17.10.2020 23:00:00 9,2 7,9 - - 0,0
17.10.2020 22:00:00 8,6 7,2 - - 0,0
17.10.2020 21:00:00 8,8 6,7 - - 0,0
17.10.2020 20:00:00 9,6 7,1 - - 0,0
17.10.2020 19:00:00 10,3 7,1 - - 0,0
17.10.2020 18:00:00 11,1 7,0 - - 0,0
17.10.2020 17:00:00 11,8 8,0 - - 0,0
17.10.2020 16:00:00 12,0 8,3 - - 0,0
17.10.2020 15:00:00 12,0 8,4 - - 0,0
17.10.2020 14:00:00 12,5 8,6 - - 0,0
17.10.2020 13:00:00 11,7 8,8 - - 0,0
17.10.2020 12:00:00 10,4 8,7 - - 0,0
17.10.2020 11:00:00 9,3 8,0 - - 0,0
17.10.2020 10:00:00 8,2 7,1 11,9 12,9 0,0
17.10.2020 09:00:00 7,8 6,4 - - 0,0
17.10.2020 08:00:00 7,2 6,4 - - 0,2
17.10.2020 07:00:00 7,4 6,5 - - 0,0
17.10.2020 06:00:00 7,5 6,5 - - 0,0
17.10.2020 05:00:00 7,5 6,3 - - 0,0
17.10.2020 04:00:00 7,7 6,7 - - 0,0
17.10.2020 03:00:00 8,0 6,6 - - 0,0
17.10.2020 02:00:00 8,3 6,3 - - 0,0
17.10.2020 01:00:00 8,4 6,1 - - 0,0
17.10.2020 00:00:00 8,3 6,3 - - 0,0
16.10.2020 23:00:00 8,1 6,1 - - 0,0
16.10.2020 22:00:00 8,4 6,1 - - 0,0
16.10.2020 21:00:00 9,0 6,4 - - 0,0
16.10.2020 20:00:00 9,1 6,7 - - 0,0
16.10.2020 19:00:00 8,6 6,4 - - 0,0
16.10.2020 18:00:00 9,9 6,5 - - 0,0
16.10.2020 17:00:00 10,6 6,2 - - 0,0
16.10.2020 16:00:00 11,2 6,3 - - 0,0
16.10.2020 15:00:00 11,5 5,2 - - 0,0
16.10.2020 14:00:00 11,6 5,6 - - 0,0
16.10.2020 13:00:00 11,4 4,9 - - 0,0
16.10.2020 12:00:00 11,6 5,5 - - 0,0
16.10.2020 11:00:00 10,9 6,3 - - 0,0
16.10.2020 10:00:00 8,8 6,7 11,7 13,0 0,0
16.10.2020 09:00:00 7,1 5,9 - - 0,0
16.10.2020 08:00:00 6,9 5,5 - - 0,0
16.10.2020 07:00:00 7,2 5,6 - - 0,0
16.10.2020 06:00:00 7,3 5,6 - - 0,0
16.10.2020 05:00:00 7,2 5,6 - - 0,0
16.10.2020 04:00:00 7,2 5,6 - - 0,0
16.10.2020 03:00:00 6,9 5,5 - - 0,0
16.10.2020 02:00:00 7,3 5,7 - - 0,0
16.10.2020 01:00:00 8,0 5,7 - - 0,0
16.10.2020 00:00:00 8,1 5,5 - - 0,0
15.10.2020 23:00:00 8,1 5,6 - - 0,0
15.10.2020 22:00:00 8,0 5,5 - - 0,0
15.10.2020 21:00:00 8,2 5,6 - - 0,0
15.10.2020 20:00:00 8,3 5,9 - - 0,0
15.10.2020 19:00:00 8,6 5,6 - - 0,0
15.10.2020 18:00:00 8,4 6,1 - - 0,0
15.10.2020 17:00:00 9,1 5,9 - - 0,0
15.10.2020 16:00:00 9,2 6,9 - - 0,2
15.10.2020 15:00:00 10,6 7,6 - - 0,0
15.10.2020 14:00:00 9,3 7,7 - - 0,4
15.10.2020 13:00:00 10,9 6,7 - - 0,0
15.10.2020 12:00:00 10,4 6,3 - - 0,0
15.10.2020 11:00:00 10,6 7,3 - - 0,0
15.10.2020 10:00:00 8,8 7,2 - - 0,0
15.10.2020 09:00:00 7,4 6,3 - - 0,0
15.10.2020 08:00:00 6,6 5,9 - - 0,0
15.10.2020 07:00:00 6,4 5,6 - - 0,2
15.10.2020 06:00:00 7,0 6,2 - - 1,4
15.10.2020 05:00:00 6,8 5,9 - - 0,0
15.10.2020 04:00:00 7,4 6,6 - - 0,0
15.10.2020 03:00:00 7,2 5,9 - - 0,0
15.10.2020 02:00:00 6,9 5,9 - - 0,0
15.10.2020 01:00:00 7,1 6,3 - - 0,0
15.10.2020 00:00:00 7,0 6,3 - - 0,0
14.10.2020 23:00:00 7,3 6,3 - - 0,0
14.10.2020 22:00:00 7,6 6,7 - - 0,0
14.10.2020 21:00:00 7,6 6,6 - - 0,0
14.10.2020 20:00:00 8,8 7,4 - - 0,0
14.10.2020 19:00:00 9,6 8,3 - - 0,0
14.10.2020 18:00:00 10,4 8,5 - - 0,0
14.10.2020 17:00:00 11,5 8,9 - - 0,0
14.10.2020 16:00:00 12,5 8,5 - - 0,0
14.10.2020 15:00:00 12,7 8,9 - - 0,0

tt = temperature
td = dewpoint
tt -20cm = temperature -20cm
tt -100cm = temperature -100cm
rr = precipitation

Next stations